Ypsilanti, MI

1:35 PM EDT on July 29, 2016 (GMT -0400)
Willow Run

Weather History for KYIP - February, 2014

Change the Weather History Date:

Saturday, February 8, 2014

  Actual Average Record
Temperature  
Mean Temperature 10 °F -  
Max Temperature 19 °F 31 °F 55 °F (1990)
Min Temperature 1 °F 14 °F -1 °F (1972)
Degree Days  
Heating Degree Days 55    
Moisture  
Dew Point 5 °F    
Average Humidity 71    
Maximum Humidity 81    
Minimum Humidity 62    
Precipitation  
Precipitation 0.00 in - - ()
Sea Level Pressure  
Sea Level Pressure 30.26 in    
Wind  
Wind Speed 7 mph (SSW)    
Max Wind Speed 13 mph    
Max Gust Speed -    
Visibility 5 miles    
Events Snow    
Averages and records for this station are not official NWS values.
T = Trace of Precipitation, MM = Missing Value Source: NWS Daily Summary

Daily Weather History Graph

Daily Weather History Graph

Search for Another Location

Airport or City:

Trip Planner

Search our weather history database for the weather conditions in past years. The results will help you decide how hot, cold, wet, or windy it might be!

Date:

Astronomy

Feb. 08, 2014 Rise Set
Actual Time 7:39 AM EST 5:57 PM EST
Civil Twilight 7:10 AM EST 6:26 PM EST
Nautical Twilight 6:37 AM EST 7:00 PM EST
Astronomical Twilight 6:04 AM EST 7:32 PM EST
Moon 12:49 PM EST (2/8) 2:52 AM EST (2/8)
Length of Visible Light 11h 16m
Length of Day
10h 18m
Waxing Gibbous, 68% of the Moon is Illuminated
Feb 8
Waxing Gibbous
Feb 14
Full
Feb 22
Last Quarter
Mar 1
New
Mar 8
First Quarter

Hourly Weather History & Observations

Time (EST) Temp. Windchill Dew Point Humidity Pressure Visibility Wind Dir Wind Speed Gust Speed Precip Events Conditions
12:53 AM 1.0 °F -14.0 °F -8.0 °F 66% 30.37 in 10.0 mi SW 9.2 mph - N/A   Clear
1:53 AM 1.9 °F -9.2 °F -6.0 °F 69% 30.35 in 10.0 mi SSW 5.8 mph - N/A   Clear
2:53 AM 3.9 °F -6.9 °F -4.0 °F 70% 30.35 in 10.0 mi SW 5.8 mph - N/A   Clear
3:53 AM 6.1 °F -5.6 °F -2.9 °F 67% 30.34 in 10.0 mi SW 6.9 mph - N/A   Clear
4:53 AM 6.1 °F -4.3 °F -2.9 °F 67% 30.34 in 10.0 mi SW 5.8 mph - N/A   Clear
5:53 AM 5.0 °F -6.9 °F -4.0 °F 66% 30.34 in 10.0 mi SW 6.9 mph - N/A   Partly Cloudy
6:53 AM 6.1 °F -6.8 °F -2.9 °F 67% 30.33 in 10.0 mi SW 8.1 mph - N/A   Partly Cloudy
7:51 AM 6.8 °F -5.9 °F -2.2 °F 67% 30.30 in 10.0 mi SW 8.1 mph - N/A   Overcast
7:53 AM 7.0 °F -5.7 °F -2.0 °F 67% 30.35 in 10.0 mi SW 8.1 mph - N/A   Overcast
8:53 AM 9.0 °F -2.2 °F -0.9 °F 64% 30.36 in 10.0 mi SW 6.9 mph - N/A   Overcast
9:26 AM 8.6 °F -2.6 °F -0.4 °F 67% 30.31 in 10.0 mi SSW 6.9 mph - N/A   Overcast
9:48 AM 10.4 °F 2.2 °F 1.4 °F 67% 30.30 in 1.8 mi SW 4.6 mph - 0.00 in Snow Light Snow
9:53 AM 10.0 °F 3.6 °F 1.0 °F 67% 30.34 in 1.8 mi SSW 3.5 mph - 0.00 in Snow Light Snow
10:02 AM 10.4 °F - 1.4 °F 67% 30.29 in 2.5 mi Calm Calm - 0.00 in Snow Light Snow
10:10 AM 10.4 °F - 1.4 °F 67% 30.29 in 4.0 mi Calm Calm - 0.00 in Snow Light Snow
10:39 AM 10.4 °F -0.4 °F 3.2 °F 73% 30.29 in 2.0 mi WSW 6.9 mph - 0.00 in Snow Light Snow
10:53 AM 12.0 °F 0.5 °F 3.9 °F 70% 30.34 in 2.0 mi SW 8.1 mph - 0.00 in Snow Light Snow
11:00 AM 12.2 °F 0.7 °F 3.2 °F 67% 30.29 in 1.8 mi SSW 8.1 mph - 0.00 in Snow Light Snow
11:14 AM 12.2 °F 0.7 °F 5.0 °F 73% 30.29 in 2.0 mi SW 8.1 mph - 0.00 in Snow Light Snow
11:49 AM 14.0 °F 5.1 °F 6.8 °F 73% 30.28 in 3.0 mi SSW 5.8 mph - 0.00 in Snow Light Snow
11:53 AM 14.0 °F 5.1 °F 6.1 °F 71% 30.32 in 4.0 mi South 5.8 mph - 0.00 in Snow Light Snow
12:53 PM 17.1 °F 7.6 °F 7.0 °F 65% 30.29 in 10.0 mi South 6.9 mph - 0.00 in   Overcast
1:53 PM 19.0 °F 6.1 °F 8.1 °F 62% 30.28 in 7.0 mi SW 12.7 mph - N/A   Overcast
2:53 PM 18.0 °F 7.7 °F 7.0 °F 62% 30.25 in 9.0 mi SSW 8.1 mph - N/A   Overcast
3:53 PM 18.0 °F 9.8 °F 8.1 °F 65% 30.24 in 10.0 mi SSW 5.8 mph - N/A   Overcast
4:53 PM 18.0 °F 6.9 °F 7.0 °F 62% 30.23 in 10.0 mi SSW 9.2 mph - N/A   Overcast
5:44 PM 17.6 °F 6.4 °F 8.6 °F 68% 30.19 in 1.8 mi SW 9.2 mph - 0.00 in Snow Light Snow
5:53 PM 17.1 °F 5.8 °F 9.0 °F 71% 30.23 in 0.8 mi SW 9.2 mph - 0.00 in Snow Light Snow
6:11 PM 17.6 °F 5.7 °F 10.4 °F 73% 30.21 in 1.2 mi SW 10.4 mph - 0.00 in Snow Light Snow
6:30 PM 17.6 °F 8.2 °F 10.4 °F 73% 30.20 in 2.5 mi SSW 6.9 mph - 0.00 in Snow Light Snow
6:39 PM 17.6 °F 8.2 °F 10.4 °F 73% 30.20 in 3.0 mi SSW 6.9 mph - 0.00 in Snow Light Snow
6:51 PM 17.6 °F 7.3 °F 10.4 °F 73% 30.20 in 2.0 mi SSW 8.1 mph - 0.00 in Snow Light Snow
6:53 PM 17.1 °F 6.6 °F 10.0 °F 74% 30.24 in 2.0 mi SSW 8.1 mph - 0.00 in Snow Light Snow
7:02 PM 17.6 °F 8.2 °F 10.4 °F 73% 30.20 in 3.0 mi SSW 6.9 mph - 0.00 in Snow Light Snow
7:43 PM 17.6 °F 9.3 °F 10.4 °F 73% 30.19 in 1.8 mi SSW 5.8 mph - 0.00 in Snow Light Snow
7:51 PM 15.8 °F 7.2 °F 10.4 °F 79% 30.19 in 1.8 mi South 5.8 mph - 0.00 in Snow Light Snow
7:53 PM 16.0 °F 6.3 °F 10.9 °F 81% 30.22 in 1.8 mi South 6.9 mph - 0.00 in Snow Light Snow
8:00 PM 15.8 °F 6.1 °F 10.4 °F 79% 30.19 in 2.5 mi South 6.9 mph - 0.00 in Snow Light Snow
8:07 PM 15.8 °F 6.1 °F 10.4 °F 79% 30.19 in 3.0 mi South 6.9 mph - 0.00 in Snow Light Snow
8:13 PM 15.8 °F 7.2 °F 10.4 °F 79% 30.19 in 1.8 mi SSW 5.8 mph - 0.00 in Snow Light Snow
8:27 PM 15.8 °F 6.1 °F 10.4 °F 79% 30.19 in 2.5 mi SSW 6.9 mph - 0.00 in Snow Light Snow
8:32 PM 15.8 °F 7.2 °F 10.4 °F 79% 30.18 in 3.0 mi South 5.8 mph - 0.00 in Snow Light Snow
8:53 PM 15.1 °F 7.7 °F 9.0 °F 77% 30.22 in 4.0 mi SW 4.6 mph - 0.00 in Snow Light Snow
10:53 PM 15.1 °F 7.7 °F 9.0 °F 77% 30.21 in 4.0 mi SSW 4.6 mph - 0.00 in Snow Light Snow
11:53 PM 15.1 °F - 9.0 °F 77% 30.19 in 4.0 mi Calm Calm - 0.00 in Snow Light Snow